Volver al catálogo

STARLINK-37362

ActivoComunicacionesVLEO
NORAD 68974·PAYLOAD·🇺🇸 United States

Lanzado May 1, 2026 desde Cape Canaveral Space Force Station

Loading…

Próximos Pases (próximas 24 horas)

TLE

ActualizadoSource: CelesTrak SupGP

Época: Sep 14, 2026, 22:54 UTC

1 68974C 26099Z   26257.95465278  .00025576  00000+0  75575-3 0  2571
2 68974  53.1564 101.4769 0001271  86.2852  14.1126 15.34374074    14

Sigue STARLINK-37362 en tiempo real con AllMySat

Download on the App Store